Regional Weather Roundup
Issued by NWS

Home | Current Version | Previous Version | Graphics & Text | Print | Product List | Glossary On
Versions: 1 2 3 4 5 6 7 8 9 10 11 12 13 14 15 16 17 18 19 20 21 22 23 24 25 26 27 28 29 30 31 32 33 34 35 36 37 38 39 40 41 42 43 44 45 46 47 48 49 50
000
ASUS43 KDTX 300101
RWRMI
MICHIGAN HOURLY REGIONAL WEATHER ROUNDUP
NATIONAL WEATHER SERVICE DETROIT/PONTIAC MI
900 PM EDT SAT AUG 29 2015

NOTE: "FAIR" INDICATES FEW OR NO CLOUDS BELOW 12,000 FEET WITH NO
SIGNIFICANT WEATHER AND/OR OBSTRUCTION TO VISIBILITY.

MIZ047>049-052>055-059>063-066>070-074>076-081>083-300200-
SOUTHEAST LOWER MICHIGAN

CITY           SKY/WX    TMP DP  RH WIND       PRES   REMARKS
ADRIAN         CLOUDY    69  66  90 CALM      30.07R
ALMA           CLOUDY    64  64  98 CALM      30.07R FOG
ANN ARBOR      CLOUDY    67  64  90 CALM      30.06R
BAD AXE        CLOUDY    64  63  94 CALM      30.09R FOG
CARO           RAIN      64  64  98 CALM      30.08S
DETROIT CITY   CLOUDY    72  63  73 CALM      30.06R
DETROIT        CLOUDY    73  62  68 CALM      30.06R
FLINT          LGT RAIN  69  65  86 E6        30.08S VSB 1
GROSSE ILE     CLOUDY    72  64  78 CALM      30.05R
HILLSDALE      CLOUDY    68  68 100 CALM      30.08R FOG
HOWELL         CLOUDY    66  65  97 CALM      30.08R FOG

CITY           SKY/WX    TMP DP  RH WIND       PRES   REMARKS
JACKSON        CLOUDY    67  65  93 NE3       30.07S
LAMBERTVILLE   CLOUDY    70  66  87 CALM      30.07R
LANSING        CLOUDY    66  64  93 SE6       30.06F
LAPEER         CLOUDY    65  65  98 CALM      30.09R
MASON          LGT RAIN  66  63  89 CALM      30.08R
MT. CLEMENS    LGT RAIN  69  65  88 CALM      30.05R
PONTIAC        LGT RAIN  67  66  97 NW9       30.08R
PORT HOPE        N/A     65  62  90 CALM      30.07R
PORT HURON     CLOUDY    66  64  94 CALM      30.07R
TRI CITIES     CLOUDY    66  63  90 SE3       30.08S FOG
MIDLAND        CLOUDY    65  63  93 CALM      30.07R
TROY           CLOUDY    71  65  80 N3        30.09R
SAGINAW HB     LGT RAIN  63  63 100 N3        30.07S
$$
MIZ043>046-050>051-056>058-064>065-071>073-077>080-300200-
SOUTHWEST LOWER MICHIGAN

CITY           SKY/WX    TMP DP  RH WIND       PRES   REMARKS
BATTLE CREEK   LGT RAIN  68  66  93 E5        30.06S
BENTON HARBOR  LGT RAIN  68  66  93 E3        30.01S FOG
BIG RAPIDS     DRIZZLE   64  63  96 CALM      30.07R
COLDWATER      LGT RAIN  68  68  99 CALM      30.08R
FREMONT        CLOUDY    64  64 100 E5        30.05R
HOLLAND        CLOUDY    68  65  90 E5        30.04S
GRAND RAPIDS   LGT RAIN  66  65  96 E5        30.05R FOG
IONIA          CLOUDY    65  64  99 E3        30.05S FOG
KALAMAZOO      LGT RAIN  69  65  86 CALM      30.05R
LUDINGTON      CLOUDY    67  64  88 CALM      30.06R
MARSHALL       CLOUDY    67  65  96 E5        30.06S FOG
MOUNT PLEASANT CLOUDY    66  64  91 CALM      30.06S
MUSKEGON       LGT RAIN  66  63  90 CALM      30.05R FOG
SOUTH HAVEN    CLOUDY    68  66  94 E5        30.02S FOG
$$
MIZ016>042-300200-
NORTHERN LOWER MICHIGAN

CITY           SKY/WX    TMP DP  RH WIND       PRES   REMARKS
ALPENA         CLEAR     64  61  90 CALM      30.07R
BEAVER ISLAND  CLEAR     62  60  94 S3        30.05S
BELLAIRE       PTCLDY    66  61  85 CALM      30.05R
CADILLAC       PTCLDY    63  59  88 CALM      30.07S
CHARLEVOIX     PTCLDY    65  61  86 W3        30.08S
FRANKFORT      CLOUDY    64  62  92 CALM      30.05S
GAYLORD        CLOUDY    66  61  84 SW3       30.08R
GRAYLING       PTCLDY    62  60  93 CALM      30.08S
HARBOR SPRINGS CLEAR     63  60  89 CALM      30.06R
HOUGHTON LAKE  PTCLDY    64  59  83 S6        30.08R
MANISTEE       CLOUDY    66  61  82 CALM      30.06R
OSCODA         CLOUDY    65  61  87 S3        30.07R
PELLSTON       CLEAR     63  61  93 CALM      30.06R
ROGERS CITY    CLOUDY    65  63  93 CALM      30.07R
TRAVERSE CITY  MOCLDY    67  62  84 CALM      30.05R
$$
MIZ007>008-015-300200-
EASTERN UPPER MICHIGAN

CITY           SKY/WX    TMP DP  RH WIND       PRES   REMARKS
KINROSS        PTCLDY    64  63  94 CALM      30.05R
MACKINAC ISLAN CLEAR     64  59  82 SW6       30.05S
NEWBERRY       CLEAR     62  60  93 S5        30.03R
S. S. MARIE    CLEAR     65  59  81 SW7       30.03R
$$
MIZ004>006-011>014-085-300200-
CENTRAL UPPER MICHIGAN

CITY           SKY/WX    TMP DP  RH WIND       PRES   REMARKS
MANISTIQUE     CLEAR     62  61  95 SW6       30.03S
ESCANABA       CLEAR     64  61  88 S7        30.02R
MENOMINEE      CLEAR     64  57  77 CALM      30.03R
SAWYER-GWINN   PTCLDY    66  57  72 NE5       30.02R
$$
MIZ001>003-009>011-084-300200-
WESTERN UPPER MICHIGAN

CITY           SKY/WX    TMP DP  RH WIND       PRES   REMARKS
IRON MOUNTAIN  CLEAR     67  61  81 S7        30.02R
HOUGHTON       MOCLDY    67  58  72 W5        29.99S
IRONWOOD       CLEAR     64  63  94 CALM      29.98R
$$

ABBREVIATIONS USED IN REMARKS
   TC - TEMPERATURE IN CELSIUS
  WCI - WIND CHILL INDEX
   HX - HEAT INDEX
  VSB - VISIBILITY



USA.gov is the U.S. government's official web portal to all federal, state and local government web resources and services.